Location: Tauranga
(37.6860°S, 176.1670°E)
Time: 18:42:43
(UTC+13:00)

Lacrosse 5 - Pass Details

Date: 24 January 2019
Orbit: 713 x 725 km, 57.0° (Epoch: 17 February)

Event Time Altitude Azimuth Distance (km) Brightness Sun altitude
Rises 22:53:06 0° 237° (WSW) 3,162 6.4 -22.5°
Reaches altitude 10° 22:56:06 10° 254° (WSW) 2,230 5.1 -22.9°
Maximum altitude 22:59:40 19° 299° (WNW) 1,675 3.8 -23.3°
Enters shadow 23:01:11 17° 321° (NW) 1,780 3.7 -23.5°
